Home   Weather   Minden   Past weeks

Flag for Germany Past Weather in Minden, North Rhine-Westphalia, Germany — Yesterday and Last 2 Weeks

Now
25 °F

Ice fog.


Feels Like: 19 °F
Forecast: 23 / 30 °F
Wind: 5 mph from Northwest

Location: Bueckeburg

Current Time: Jan 17, 2017 at 8:00:25 am

Latest Report: Jan 17, 2017 at 7:20 am


Visibility: 0 mi

Pressure: 30.57 "Hg

Humidity: 93%

Dew Point: 23 °F

Location of MindenLocation

Past Weather in Minden — Graph

°F

Minden Temperature Yesterday

Maximum temperature yesterday: 32 °F (at 1:58 am)
Minimum temperature yesterday: 25 °F (at 9:20 am)
Average temperature yesterday: 28 °F

High & Low Weather Summary for the Past Weeks

 TemperatureHumidityPressure
High43 °F (Jan 4, 4:20 am)100% (Jan 4, 1:20 am)30.77 "Hg (Jan 4, 1:20 am)
Low14 °F (Jan 6, 8:20 am)55% (Jan 5, 2:20 pm)28.91 "Hg (Jan 13, 4:20 am)
Average33 °F87%30.02 "Hg
* Reported Jan 2 6:20 am — Jan 17 6:20 am, Minden, Weather by CustomWeather, © 2017

Note: Actual official high and low records may vary slightly from our data, if they occured in-between our weather recording intervals... More about our weather records

Advertising

Minden Weather History for the Previous 24 Hours

Scroll right to see more
 ConditionsComfort  
Time TempWeatherWind HumidityBarometerVisibility
6:20 am
Tue, Jan 17
25 °FIce fog.3 mph93%30.54 "Hg1 mi
5:20 am25 °FIce fog.5 mph100%30.54 "Hg0 mi
4:20 am25 °FIce fog.3 mph100%30.54 "Hg0 mi
3:20 am27 °FIce fog.2 mph93%30.54 "Hg0 mi
2:56 am27 °FIce fog.5 mph93%30.51 "Hg0 mi
2:20 am27 °FIce fog.3 mph100%30.51 "Hg1 mi
1:20 am27 °FIce fog.7 mph100%30.51 "Hg1 mi
12:20 am27 °FIce fog.3 mph100%30.51 "Hg1 mi
11:20 pm
Mon, Jan 16
27 °FIce fog.5 mph100%30.48 "Hg1 mi
10:56 pm27 °FIce fog.5 mph100%30.48 "Hg1 mi
10:20 pm27 °FIce fog.3 mph100%30.48 "Hg1 mi
9:20 pm27 °FIce fog.3 mph100%30.45 "Hg1 mi
8:20 pm27 °FIce fog.2 mph100%30.45 "Hg1 mi
7:20 pm27 °FIce fog.2 mph100%30.42 "Hg1 mi
6:20 pm27 °FIce fog.2 mph100%30.42 "Hg1 mi
5:20 pm27 °FIce fog.2 mph100%30.39 "Hg1 mi
4:20 pm27 °FIce fog.1 mph100%30.39 "Hg1 mi
3:20 pm27 °FIce fog.3 mph100%30.36 "Hg1 mi
2:31 pm27 °FIce fog.3 mph100%30.36 "Hg1 mi
2:01 pm27 °FIce fog.2 mph93%30.36 "Hg1 mi
1:20 pm27 °FIce fog.3 mph93%30.36 "Hg1 mi
12:20 pm27 °FIce fog.3 mph100%30.33 "Hg1 mi
12:06 pm27 °FIce fog.3 mph100%30.33 "Hg1 mi
11:20 am27 °FIce fog.2 mph100%30.33 "Hg1 mi
10:46 am27 °FIce fog.2 mph100%30.33 "Hg1 mi
10:12 am27 °FIce fog.2 mph93%30.33 "Hg1 mi
9:20 am25 °FIce fog.1 mph100%30.30 "Hg0 mi
8:20 am27 °FIce fog.5 mph100%30.30 "Hg0 mi
8:05 am27 °FIce fog.3 mph100%30.27 "Hg1 mi
Weather by CustomWeather, © 2017

See weather overviewHow to use our weather pages